GEO-KOMPSAT-2B

Last updated on Oct. 31, 2020, 5:53 a.m. UTC

1 45246U 20013B   20304.89260699 -.00000338  00000-0  00000-0 0  9990
2 45246   0.0138 303.0693 0002339 301.7659 244.4431  1.00274169  2652
UTC
Height (km)
Latitude
Longitude
Inclination
Orbital Period
UTC large
Height (km)
Speed (km/s)
/
Latitude / Longitude
Inclination (degrees)
Orbital Period (minutes)
Azimuth
Elevation
Range (km)
Doppler Factor
iOS Compass Heading
iOS Angle

Next 30 passes for location: Hong Kong

Rise time Rise Azimuth (degrees) Set time Set Azimuth (degrees) Duration Max altitude (degrees)

No matching passes for this satellites